Location: *
(55.4421°S, 140.4931°W)
Time: 20:59:14
(UTC+00:00)

Daily predictions for brighter satellites

Satellite Brightness Start Highest point End
(mag) Time Altitude Azimuth Time Altitude Azimuth Time Altitude Azimuth
ACS3 Solar Sail 4.2 12:06:00 10° E 12:10:11 19° SE 12:14:23 10° S
Cosmos 2263 Rocket 3.7 12:16:06 33° SE 12:16:06 33° SE 12:20:34 10° E
Cosmos 2369 Rocket 3.9 12:23:26 27° SSE 12:23:26 27° SSE 12:26:06 10° SSE
ADEOS Rocket 3.8 12:26:29 51° SSE 12:26:29 51° SSE 12:31:50 10° SSW
Cosmos 2227 Rocket 3.9 12:32:57 25° ENE 12:32:57 25° ENE 12:35:17 10° NE
Cosmos 1607 4.4 12:40:01 58° E 12:40:01 58° E 12:45:20 10° SE
Magion-5 4.5 12:40:16 73° NE 12:40:16 73° NE 12:51:15 10° NE
Cosmos 2278 Rocket 4.2 12:51:00 18° S 12:51:00 18° S 12:54:50 10° SSE
GEOS 3 Rocket 4.4 12:46:27 10° SE 12:50:15 48° SE 12:50:15 48° SE
Cosmos 2100 Rocket 4.1 13:01:06 66° NE 13:01:41 70° E 13:07:56 10° SSE
Cosmos 1818 4.0 13:06:36 59° SE 13:06:36 59° SE 13:11:39 10° ENE
BREEZE-M DEB (TANK) 4.4 13:08:32 58° NW 13:09:12 60° NNW 13:32:59 10° NE
Cosmos 1943 Rocket 4.2 13:10:56 17° SSW 13:11:33 17° S 13:15:20 10° SSE
Cosmos 2016 Rocket 4.4 13:18:08 15° N 13:23:22 62° E 13:29:43 10° SSE
Meteor 1-24 Rocket 4.4 13:19:42 10° S 13:25:03 50° ESE 13:30:15 10° NE
ARIANE 5 R/B 3.5 13:20:38 10° NE 13:25:26 44° ESE 13:30:15 10° S
CZ-2C R/B 4.4 13:21:26 10° S 13:23:54 21° SSW 13:23:54 21° SSW
IRAS Rocket 4.3 13:25:47 10° NNE 13:31:23 78° ESE 13:37:01 10° SSW
Cosmos 2219 3.3 13:31:10 41° SSW 13:33:12 73° SE 13:38:51 10° NE
ATLAS 5 CENTAUR R/B 2.8 13:33:49 48° NNW 13:36:00 75° NE 13:42:43 10° SE
ATLAS 2AS CENTAUR R/B 3.5 13:33:53 32° SW 13:36:58 48° SSE 13:44:08 10° E
Cosmos 2360 4.2 13:35:59 62° NNW 13:36:58 80° ENE 13:42:45 10° SE
Cosmos 1725 Rocket 4.1 13:33:12 19° N 13:37:56 78° E 13:44:21 10° SSE
Cosmos 2150 Rocket 4.2 13:37:46 51° N 13:39:08 73° ENE 13:44:37 10° SSE
Cosmos 1844 Rocket 4.1 13:40:56 14° SSW 13:45:12 35° SE 13:50:19 10° ENE
Cosmos 1864 Rocket 4.4 13:46:25 28° NNW 13:49:53 84° W 13:56:13 10° S
Cosmos 1697 Rocket 3.0 13:47:46 30° N 13:50:38 64° ENE 13:56:18 10° SE
Meteor 2-5 Rocket 3.9 13:44:51 10° SSW 13:50:42 71° ESE 13:56:20 10° NNE
Cosmos 1140 Rocket 3.6 13:48:19 26° SSW 13:51:18 77° ESE 13:56:33 10° NNE
ACS3 Solar Sail 2.4 13:46:14 10° NE 13:52:26 61° ESE 13:58:45 10° S
Cosmos 1656 3.6 13:53:35 60° WSW 13:53:56 61° SW 13:59:24 10° SSE
Cosmos 1633 Rocket 3.4 13:57:40 53° SSW 13:57:40 53° SSW 14:01:13 10° S
SL-16 R/B 2.7 13:50:38 10° SSE 13:57:01 76° ENE 14:03:18 10° NNW
SJ 16-02 4.0 13:55:59 10° S 13:58:28 15° SE 14:00:56 10° ESE
CZ-4C R/B 4.3 13:50:58 10° N 13:58:32 36° ENE 14:04:56 10° ESE
Cosmos 2084 4.1 14:00:51 43° N 14:00:51 43° N 14:04:12 10° NNE
Cosmos 2263 Rocket 2.0 13:57:50 40° SW 13:59:57 75° WNW 14:05:32 10° NNE
Tsikada Rocket 3.9 13:53:53 10° SSW 14:00:23 74° W 14:06:50 10° N
Cosmos 1455 4.2 14:04:06 15° SSE 14:04:06 15° SSE 14:04:41 10° SSE
Cosmos 1703 Rocket 3.4 14:02:22 60° SSW 14:03:07 77° W 14:07:31 10° N
SMAP 3.8 13:59:20 10° NE 14:03:55 54° ESE 14:08:34 10° S
Cosmos 2173 Rocket 4.1 14:03:46 45° WNW 14:05:07 52° WSW 14:11:14 10° S
Meteor 2-17 Rocket 4.3 13:59:42 10° SSW 14:05:54 70° W 14:12:03 10° N
Cosmos 2369 Rocket 3.8 14:05:12 20° SSW 14:06:03 20° SSW 14:10:13 10° SSE
Meteor 1-28 Rocket 4.4 14:04:26 10° S 14:06:16 28° S 14:06:16 28° S
Blok-L 4.3 14:08:18 35° SW 14:09:58 73° SE 14:17:04 10° ENE
IGS 5A 4.4 14:06:31 10° NE 14:10:26 47° ESE 14:14:24 10° S
Cosmos 1125 Rocket 3.9 14:10:38 41° SW 14:10:48 42° SW 14:15:51 10° SSE
ADEOS Rocket 4.1 14:13:25 27° SW 14:13:25 27° SW 14:17:10 10° SSW
Cosmos 1953 4.4 14:09:14 10° NNE 14:12:26 27° E 14:15:42 10° SSE
Cosmos 2227 Rocket 3.0 14:14:52 32° NW 14:14:52 32° NW 14:18:39 10° N
Cosmos 1459 Rocket 4.2 14:15:09 37° WNW 14:17:04 47° WSW 14:23:16 10° S
Cosmos 1328 4.3 14:14:14 10° S 14:17:58 56° ESE 14:21:39 10° NNE
Cosmos 2082 3.6 14:14:31 21° SW 14:18:24 78° WNW 14:24:03 10° NNE
Meteor 1-22 Rocket 4.2 14:14:55 10° N 14:20:15 80° ENE 14:25:44 10° SSE
Cosmos 1758 3.1 14:22:25 59° NW 14:22:57 68° WSW 14:26:50 10° S
Cosmos 2233 Rocket 3.9 14:19:03 10° NNW 14:25:23 76° WSW 14:31:51 10° S
Cosmos 1607 4.3 14:24:09 34° W 14:26:34 50° SSW 14:32:49 10° SE
Cosmos 1023 Rocket 4.5 14:24:39 22° SW 14:27:59 59° WNW 14:33:09 10° N
Cosmos 1802 Rocket 4.2 14:24:47 21° NW 14:29:02 50° WSW 14:35:24 10° S
GEOS 3 Rocket 4.4 14:24:31 10° SE 14:29:26 39° SSW 14:31:17 30° WSW
USA 290 3.2 14:27:31 22° S 14:29:28 49° SE 14:32:47 10° NE
SL-08 R/B 4.4 14:24:02 10° NNW 14:30:08 61° WSW 14:36:16 10° S
IRS-P3 4.0 14:27:39 10° NNE 14:33:03 80° WNW 14:38:30 10° SSW
JB-3 4.2 14:29:35 10° SSE 14:33:27 85° ENE 14:37:20 10° NNW
RESURS DK-1 2.2 14:31:53 29° SW 14:33:54 87° SE 14:37:58 10° NE
SJ-12 3.7 14:31:08 10° N 14:35:03 66° WNW 14:39:02 10° SSW
Cosmos 1461 3.5 14:36:45 30° NNW 14:36:45 30° NNW 14:39:19 10° N
Cosmos 1269 Rocket 4.4 14:34:41 29° WSW 14:36:44 40° WNW 14:41:39 10° N
SL-12 R/B(2) 4.1 14:29:22 16° SW 14:37:03 77° NW 14:44:40 10° NE
Cosmos 2278 Rocket 4.2 14:33:09 10° SSW 14:37:17 20° SSE 14:41:22 10° ESE
Elektron 3 4.2 14:38:26 47° WSW 14:39:04 57° SSW 14:43:24 10° ESE
Resurs 01 Rocket 4.5 14:38:06 10° ESE 14:40:17 14° SE 14:42:28 10° SSE
SL-19 R/B 3.8 14:37:29 10° NNE 14:40:26 75° ESE 14:43:35 11° SSW
Aureole 3 4.3 14:34:19 10° SSW 14:40:44 65° W 14:46:05 10° N
Cosmos 2298 Rocket 4.4 14:45:49 26° WNW 14:48:27 45° SW 14:53:37 10° SSE
Cosmos 1844 4.2 14:42:41 10° SSW 14:48:32 65° SE 14:54:21 10° NE
UNK 3.7 14:44:02 10° SSE 14:48:39 65° WSW 14:53:15 10° NNW
Cosmos 2369 4.4 14:44:01 10° NNW 14:49:34 58° ENE 14:55:12 10° SE
Cosmos 1818 4.0 14:47:15 26° WSW 14:49:43 42° WNW 14:54:47 10° NNE
Cosmos 2061 Rocket 4.1 14:44:11 10° NNW 14:50:27 56° WSW 14:56:44 10° S
IRS-1C 4.3 14:45:29 10° N 14:50:39 48° W 14:55:55 10° SSW
Nadezhda 4 Rocket 4.1 14:45:11 10° S 14:51:39 82° ESE 14:58:00 10° NNE
Helios 1A Rocket 3.0 14:48:14 10° S 14:51:42 40° WSW 14:52:48 31° WNW
Cosmos 1980 Rocket 2.3 14:47:11 10° NNW 14:52:53 84° ENE 14:58:40 10° SE
CZ-2D R/B 3.4 14:49:49 10° N 14:53:04 39° W 14:54:18 28° SW
Cosmos 1190 Rocket 4.2 14:48:15 10° SSW 14:53:33 76° ESE 14:58:47 10° NNE
USA 81 4.4 14:48:35 10° S 14:53:57 68° E 14:59:15 10° NNE
Cosmos 1943 Rocket 4.2 14:53:16 10° SSW 14:57:30 21° SSE 15:01:44 10° ESE
SL-24 R/B 3.9 14:55:45 10° NNE 14:59:30 78° ESE 15:03:37 10° SSW
Cosmos 1464 Rocket 4.4 14:53:47 10° N 15:00:08 72° E 15:06:29 10° SSE
Cosmos 1271 Rocket 3.2 15:00:00 28° WSW 15:00:50 31° W 15:04:01 10° NNW
Aureole 3 Rocket 3.0 14:58:30 10° N 15:01:34 56° E 15:04:48 10° SSE
SL-4 R/B 3.3 15:00:22 12° NW 15:03:50 35° NNE 15:07:39 10° E
Cosmos 1470 Rocket 4.4 15:02:47 23° W 15:04:13 28° WSW 15:08:02 10° S
ARIANE 5 R/B 3.0 14:59:54 10° NNW 15:04:35 37° W 15:09:19 10° SSW
Meteor 2-10 Rocket 4.3 14:59:27 10° NW 15:04:54 38° WSW 15:10:18 10° S
PSLV R/B 3.5 15:01:23 10° NNE 15:05:40 88° WNW 15:09:58 10° SSW
Meteor 1-24 Rocket 4.2 15:03:06 10° SSW 15:07:57 33° W 15:12:42 10° NNW
Orbus 7S? 4.3 15:03:13 18° W 15:09:23 78° S 15:13:19 10° E
Cosmos 1954 Rocket 4.1 15:07:52 10° SSW 15:13:10 84° ESE 15:18:28 10° NNE
Meteor 1-21 Rocket 4.3 15:08:02 10° SSW 15:13:45 80° ESE 15:19:20 10° NNE
Spot 4 Rocket 4.0 15:08:54 10° N 15:14:04 73° WNW 15:19:16 10° SSW
Cosmos 1933 Rocket 4.1 15:11:59 10° NW 15:16:12 39° WSW 15:20:27 10° S
Cosmos 2219 4.1 15:13:08 14° SW 15:16:52 27° WNW 15:21:32 10° NNW
Meteor 1-16 Rocket 4.3 15:11:13 10° NNW 15:16:55 89° WSW 15:22:52 10° SSE
USA 305 4.4 15:13:28 10° NNW 15:16:58 30° NNE 15:20:28 10° E
ATLAS 5 CENTAUR R/B 2.9 15:13:49 16° W 15:19:40 55° SSW 15:25:56 10° SE
Meteor 1-15 Rocket 4.4 15:14:23 10° NW 15:19:57 49° WSW 15:25:30 10° S
Intercosmos 24 4.2 15:17:57 10° SSW 15:21:22 36° W 15:24:51 10° NNW
Cosmos 1378 Rocket 3.5 15:17:08 10° SSW 15:21:34 81° W 15:25:54 10° N
Cosmos 407 Rocket 4.0 15:17:57 10° SW 15:22:57 41° WNW 15:27:56 10° N
Cosmos 2242 Rocket 3.9 15:22:49 10° SSW 15:27:02 42° W 15:31:14 10° NNW
Cosmos 1869 Rocket 3.9 15:22:57 10° NW 15:27:16 44° WSW 15:31:37 10° S
Meteor 1-12 Rocket 4.4 15:22:22 10° NNW 15:28:11 63° WSW 15:34:10 10° S
ATLAS 2AS CENTAUR R/B 3.0 15:21:22 10° SW 15:28:46 81° SE 15:36:17 10° NE
SL-19 R/B 4.3 15:23:46 10° N 15:28:54 51° WNW 15:34:05 10° SSW
Cosmos 2227 4.4 15:23:30 10° SW 15:29:12 58° WNW 15:34:52 10° NNE
CZ-2D R/B 3.8 15:25:47 10° NNW 15:29:23 37° W 15:33:03 10° SSW
Cosmos 1844 Rocket 2.7 15:23:55 10° SW 15:29:34 72° WNW 15:35:08 10° NNE
Resurs 1-3 4.3 15:29:49 10° NNE 15:34:07 57° ESE 15:38:27 10° S
SKYMED 2 4.2 15:29:43 10° SSE 15:34:10 62° ENE 15:38:31 10° N
Cosmos 1697 Rocket 3.3 15:29:40 10° WNW 15:34:57 38° SW 15:40:17 10° SSE
Meteor 1-31 Rocket 3.3 15:31:35 10° NNE 15:35:13 57° ESE 15:38:54 10° S
Cosmos 2026 Rocket 4.0 15:29:10 10° SSW 15:35:22 88° WNW 15:41:30 10° N
Cosmos 1072 Rocket 4.5 15:29:35 10° NNW 15:35:49 68° WSW 15:42:02 10° S
ACS3 Solar Sail 2.4 15:30:30 10° NNW 15:36:12 35° W 15:42:01 10° SSW
SJ 16-02 1.9 15:33:18 10° SSW 15:37:38 58° ESE 15:41:55 10° NE
Cosmos 2251 Rocket 3.9 15:33:06 10° SW 15:38:11 44° WNW 15:43:11 10° N
CZ-4 R/B 4.5 15:35:16 10° N 15:39:17 59° WNW 15:43:22 10° SSW
SL-16 R/B 3.3 15:34:39 10° S 15:40:08 32° SW 15:45:34 10° WNW
SMAP 4.0 15:37:33 10° NNW 15:41:34 27° W 15:45:37 10° SW
Cosmos 1627 Rocket 4.5 15:35:22 10° SSW 15:41:36 84° W 15:47:47 10° N
Cosmos 2263 Rocket 3.6 15:39:34 10° WSW 15:42:57 17° W 15:46:24 10° NW
YAOGAN 1 2.6 15:40:42 10° NNE 15:45:02 88° WNW 15:49:27 10° SSW
IGS 5A 4.5 15:42:12 10° NNW 15:45:36 25° W 15:49:02 10° SW
CZ-4C R/B 3.0 15:38:16 10° NW 15:46:42 89° SW 15:53:23 10° SE
Cosmos 1674 Rocket 3.6 15:42:34 10° SSW 15:47:02 62° W 15:51:28 10° N
CZ-4 R/B 3.4 15:43:59 10° ENE 15:47:08 25° ESE 15:50:18 10° S
Cosmos 1025 Rocket 3.1 15:43:07 10° SSW 15:47:35 87° ESE 15:52:01 10° NNE
Cosmos 1953 2.7 15:44:08 10° NW 15:47:38 35° WSW 15:51:13 10° S
Cosmos 1092 Rocket 4.0 15:42:02 10° SSW 15:48:28 80° W 15:54:45 10° N
BREEZE-M DEB (TANK) 4.4 15:35:20 11° W 15:48:41 61° NNW 15:52:22 10° ENE
Cosmos 2221 Rocket 3.6 15:45:43 10° SSW 15:50:20 75° W 15:54:55 10° N
Cosmos 2369 Rocket 4.1 15:48:35 10° SSW 15:52:16 17° S 15:55:56 10° SE
CZ-2C R/B 4.0 15:49:05 10° NE 15:52:19 38° ESE 15:55:35 10° S
Cosmos 676 Rocket 4.1 15:51:50 10° SSW 15:57:01 61° WNW 16:02:11 10° N
COSMO-SKYMED 1 2.6 15:53:39 10° SSE 15:58:04 84° WSW 16:02:26 10° NNW
Radarsat Rocket 4.4 15:51:32 10° NNE 15:58:55 72° WNW 16:05:29 10° SSW
SeaSat 1 3.9 15:56:59 10° E 16:01:19 31° SE 16:05:41 10° SSW
SJ-6B 3.3 15:59:42 10° NNE 16:03:29 61° ESE 16:07:14 10° S
USA 290 3.9 16:01:11 10° WSW 16:03:38 18° WNW 16:06:03 10° NNW
Cosmos 1975 Rocket 4.0 16:00:51 10° S 16:05:14 52° ESE 16:09:30 10° NNE
